Погода в Акденизе

Турция     36°49′49″N   34°49′16″E
темп.,
°C
ветер,
м/с
пор.,
м/с
влажн.,
%
обл.,
%
осадки,
мм/ч
давл.,
гПа
погр.,
м
15 апреля, чт
чт1500:00+15ссв227669 0.0 101996
03:00+14св328089 0.0 1019115
06:00+13св238027 0.0 1019113
09:00+15всв2269100 0.0 1019261
12:00+17ю326512 0.0 1019397
15:00+17ююз43665 0.0 1017342
18:00+17юз33661 0.0 1017268
21:00+16юз11700 0.0 1017128
16 апреля, пт
пт1600:00+16св227064 0.0 101772
03:00+14св337516 0.0 101696
06:00+14св3377100 0.0 1016108
09:00+17св2368100 0.0 1017228
12:00+18ю326517 0.0 1017358
15:00+19ююз436551 0.0 1016223
18:00+19зюз33688 0.0 1016106
21:00+18зюз11715 0.0 101611
17 апреля, сб
сб1700:00+17св226899 0.0 101632
03:00+17св2268100 0.0 101537
06:00+17ссв336711 0.0 101657
09:00+20всв34595 0.0 1017117
12:00+23ю125226 0.0 1016323
15:00+22юз4460100 0.0 1015216
18:00+21зюз4460100 0.0 101542
21:00+20зюз3361100 0.0 101621
18 апреля, вс
вс1800:00+20с116356 0.0 101611
03:00+20св225898 0.0 101511
06:00+20св2256100 0.0 101515
09:00+21всв1158100 0.0 101648
12:00+23ююз225293 0.0 1016193
15:00+22юз3361100 0.0 101558
18:00+21зюз456989 0.0 101578
21:00+21ююз1167100 0.0 101511
19 апреля, пн
пн1900:00+21св3355100 0.0 101512
03:00+21св4457100 0.0 101427
06:00+22ссв3356100 0.0 101315
09:00+24св3354100 0.0 101349
12:00+26всв4446100 0.0 1013138
15:00+28всв5542100 0.0 1011273
18:00+26всв4551100 0.0 101041
21:00+24ссв445698 0.0 101019